Location: Allonne
(49.4086°N, 2.1143°E)
Time: 14:14:20
(UTC+00:00)

DMSP B5D2-2 - Pass Details

Date: 09 August 2024
Orbit: 787 x 802 km, 98.3° (Epoch: 09 September)

Event Time Altitude Azimuth Distance (km) Brightness Sun altitude
Rises 01:54:36 0° 119° (ESE) 3,280 7.3 -19.9°
Reaches altitude 10° 01:57:28 10° 103° (ESE) 2,353 6.7 -19.6°
Maximum altitude 02:01:10 20° 58° (ENE) 1,752 6.6 -19.3°
Drops below altitude 10° 02:04:52 10° 12° (NNE) 2,361 7.6 -19.0°
Sets 02:07:44 0° 356° (N) 3,294 8.1 -18.7°
